Weather History for Skagway, AK

Change the Weather History Date:

Sunday, August 5, 2012

  Actual Average Record
Temperature  
Mean Temperature 54 °F -  
Max Temperature 59 °F 64 °F 80 °F (1968)
Min Temperature 50 °F 50 °F 40 °F (1966)
Degree Days  
Heating Degree Days 12    
Growing Degree Days 4 (Base 50)    
Moisture  
Dew Point 50 °F    
Average Humidity 90    
Maximum Humidity 100    
Minimum Humidity 75    
Precipitation  
Precipitation 0.08 in - - ()
Sea Level Pressure  
Sea Level Pressure 29.98 in    
Wind  
Wind Speed 1 mph (SW)    
Max Wind Speed 15 mph    
Max Gust Speed -    
Visibility 8 miles    
Events Rain    
Averages and records for this station are not official NWS values.
T = Trace of Precipitation, MM = Missing Value Source: NWS Daily Summary

Daily Weather History Graph

Daily Weather History Graph

Search for Another Location

Airport:

Trip Planner

Search our weather history database for the weather conditions in past years. The results will help you decide how hot, cold, wet, or windy it might be!

Date:

Astronomy

Aug. 05, 2012 Rise Set
Actual Time 4:56 AM AKDT 9:16 PM AKDT
Civil Twilight 4:01 AM AKDT 10:10 PM AKDT
Nautical Twilight 2:27 AM AKDT 11:41 PM AKDT
Astronomical Twilight Sun does not rise Sun does not rise
Moon 9:32 PM AKDT (8/5) 10:12 AM AKDT (8/5)
Length of Visible Light 18h 09m
Length of Day
16h 20m
Waning Gibbous, 85% of the Moon is Illuminated
Aug 5
Waning Gibbous
Aug 9
Last Quarter
Aug 17
New
Aug 24
First Quarter
Aug 31
Full

Hourly Weather History & Observations

Time (AKDT) Temp. Dew Point Humidity Pressure Visibility Wind Dir Wind Speed Gust Speed Precip Events Conditions
12:53 AM 52.0 °F 48.0 °F 86% 29.99 in 10.0 mi Calm Calm - N/A   Overcast
1:53 AM 52.0 °F 48.0 °F 86% 29.98 in 10.0 mi Calm Calm - N/A   Overcast
2:53 AM 53.1 °F 48.9 °F 86% 29.97 in 10.0 mi Calm Calm - N/A   Overcast
3:53 AM 52.0 °F 48.9 °F 89% 29.97 in 10.0 mi Calm Calm - N/A   Overcast
4:53 AM 51.1 °F 48.0 °F 89% 29.96 in 10.0 mi Calm Calm - 0.00 in   Overcast
5:23 AM 51.8 °F 48.2 °F 88% 29.95 in 10.0 mi Calm Calm - N/A   Overcast
5:53 AM 51.1 °F 48.0 °F 89% 29.95 in 10.0 mi Calm Calm - N/A   Overcast
6:53 AM 50.0 °F 48.9 °F 96% 29.94 in 10.0 mi Calm Calm - 0.00 in Rain Light Rain
7:53 AM 51.1 °F 48.9 °F 92% 29.95 in 10.0 mi Calm Calm - 0.00 in   Overcast
8:53 AM 50.0 °F 48.9 °F 96% 29.95 in 10.0 mi Calm Calm - 0.00 in   Overcast
9:53 AM 51.1 °F 50.0 °F 96% 29.95 in 8.0 mi SW 3.5 mph - 0.00 in Rain Light Rain
11:00 AM 55.4 °F 51.8 °F 88% 29.95 in 10.0 mi Calm Calm - N/A   Overcast
11:24 AM 55.4 °F 51.8 °F 88% 29.95 in 10.0 mi Calm Calm - N/A   Overcast
11:53 AM 55.9 °F 52.0 °F 87% 29.96 in 10.0 mi Calm Calm - 0.00 in   Overcast
12:20 PM 55.4 °F 51.8 °F 88% 29.96 in 10.0 mi Calm Calm - N/A   Overcast
12:53 PM 55.9 °F 52.0 °F 87% 29.96 in 10.0 mi Calm Calm - N/A   Overcast
1:53 PM 55.0 °F 50.0 °F 83% 29.97 in 10.0 mi WSW 15.0 mph - N/A   Overcast
2:53 PM 55.9 °F 50.0 °F 80% 29.98 in 10.0 mi WSW 8.1 mph - N/A   Overcast
3:53 PM 57.9 °F 50.0 °F 75% 29.98 in 10.0 mi SSW 11.5 mph - N/A   Overcast
4:53 PM 57.0 °F 50.0 °F 77% 29.98 in 10.0 mi SSW 8.1 mph - N/A   Overcast
5:53 PM 55.0 °F 50.0 °F 83% 29.99 in 10.0 mi West 6.9 mph - 0.00 in   Overcast
6:53 PM 55.0 °F 51.1 °F 86% 29.99 in 7.0 mi West 4.6 mph - 0.02 in Rain Light Rain
7:42 PM 51.8 °F 51.8 °F 100% 29.99 in 10.0 mi Calm Calm - 0.02 in Rain Light Rain
7:53 PM 52.0 °F 51.1 °F 97% 30.00 in 10.0 mi SW 3.5 mph - 0.02 in Rain Light Rain
8:24 PM 53.6 °F 51.8 °F 94% 30.00 in 6.0 mi Calm Calm - 0.01 in Rain Light Rain
8:44 PM 53.6 °F 51.8 °F 94% 30.01 in 6.0 mi Calm Calm - 0.02 in Rain Light Rain
8:53 PM 53.1 °F 51.1 °F 93% 30.00 in 7.0 mi Calm Calm - 0.02 in Rain Light Rain
9:10 PM 53.6 °F 51.8 °F 94% 30.00 in 10.0 mi Calm Calm - 0.01 in Rain Light Rain
9:53 PM 54.0 °F 52.0 °F 93% 30.00 in 10.0 mi Calm Calm - 0.01 in Rain Light Rain
10:14 PM 53.6 °F 51.8 °F 94% 30.01 in 2.0 mi Calm Calm - 0.00 in Rain Light Rain
10:23 PM 53.6 °F 51.8 °F 94% 30.01 in 6.0 mi Calm Calm - 0.00 in Rain Light Rain
10:53 PM 52.0 °F 51.1 °F 97% 30.01 in 5.0 mi Calm Calm - 0.00 in Rain Light Rain
11:49 PM 53.6 °F 51.8 °F 94% 30.01 in 1.8 mi Calm Calm - 0.01 in Rain Light Rain
11:53 PM 51.1 °F 51.1 °F 100% 30.01 in 1.0 mi Calm Calm - 0.01 in Rain Light Rain